CAPE
465 932 1051 912 770 620 551 274 124 144 52 0 169 125 0 0 0 1 23 114 11 3 6 3 5 2 0 0 0 0 0 0 0 16 21 33 32 37 22 26 9 0 0
525 999 982 899 871 668 461 244 154 104 53 21 215 3 0 0 2 5 0 151 37 6 4 3 4 0 0 0 0 0 2 0 0 1 8 28 17 0 0 0 0 90 187
454 888 1134 1048 827 559 419 278 264 36 41 247 4 4 0 0 9 7 2 32 23 3 4 4 2 0 0 0 0 3 16 22 0 0 0 0 6 2 82 73 110 75 113
538 802 1187 1018 784 621 549 452 267 23 60 78 22 4 0 0 4 6 4 2 10 6 3 6 3 0 0 0 0 0 0 8 8 0 0 0 0 4 11 3 6 24 1
611 945 1168 951 808 722 660 450 48 0 5 278 127 1 0 0 1 3 5 4 8 3 4 3 0 0 0 0 0 0 0 3 0 0 0 0 0 2 4 0 0 0 1
761 1031 1181 975 835 759 579 268 0 0 0 407 264 50 0 0 0 1 1 3 3 4 4 0 0 0 0 0 0 0 0 0 0 0 0 0 0 0 0 0 0 0 0
1071 1073 1146 1025 901 693 565 132 1 0 0 364 551 137 0 0 0 1 1 3 4 4 1 0 0 0 0 0 0 0 0 0 0 0 0 0 0 0 0 0 0 0 0
1169 1097 1180 1054 844 664 416 48 0 0 0 169 612 182 25 0 0 0 0 1 1 0 0 0 0 0 0 0 0 0 0 0 0 0 0 0 0 0 0 0 0 0 0
1089 1030 1193 1017 774 622 191 5 0 34 165 60 441 242 30 0 0 0 0 0 0 0 0 0 0 0 0 0 0 0 0 0 0 0 0 0 6 3 0 0 0 0 0
909 820 865 938 777 443 87 0 0 138 326 274 320 300 63 0 0 0 0 0 0 0 0 0 0 0 0 0 0 0 0 0 0 0 0 0 1 13 0 0 0 0 0
758 767 717 707 649 335 40 0 0 103 111 130 322 49 13 0 0 0 0 0 0 0 0 0 0 0 0 0 0 0 0 0 0 0 0 0 0 0 10 0 0 0 0
618 754 694 617 553 353 84 0 0 0 34 17 30 18 9 2 0 0 3 0 0 0 0 0 0 0 0 0 0 0 0 0 0 0 0 0 0 0 0 2 0 0 0
707 810 912 741 719 443 140 23 2 0 0 0 0 0 0 0 12 7 0 0 0 0 0 0 0 0 0 0 0 0 0 0 0 0 0 0 0 0 0 41 0 0 0
684 790 848 646 629 602 212 130 74 21 16 0 0 0 0 0 0 0 0 0 0 0 0 0 0 0 0 0 0 0 0 0 0 0 0 0 0 0 0 1 1 0 0
698 868 977 666 635 797 441 331 198 94 107 109 14 0 0 0 0 0 0 0 0 0 0 0 0 0 0 0 0 0 0 0 0 0 0 0 0 0 0 0 58 43 0
705 693 949 773 655 766 765 568 361 141 78 127 201 72 8 0 0 0 0 0 0 0 0 0 0 0 0 0 0 0 0 0 0 0 0 0 0 0 0 0 0 67 84
668 719 777 861 771 706 626 703 532 269 143 168 184 167 110 35 19 9 0 0 0 0 0 0 0 0 0 0 0 0 0 0 0 0 0 0 0 0 0 0 0 0 44
647 814 915 820 733 577 633 508 428 505 402 281 169 205 171 101 27 10 0 0 0 0 0 0 0 0 0 0 0 0 0 1 2 3 0 0 0 0 0 0 0 0 0
628 781 742 728 507 606 556 488 465 456 296 128 141 170 165 122 73 25 14 0 0 1 0 0 0 0 0 1 0 5 9 11 12 15 12 22 11 22 3 1 3 0 0
729 730 674 711 759 523 480 625 545 536 279 149 113 150 235 219 165 84 92 121 63 66 50 18 2 3 3 7 7 4 7 7 8 2 1 26 32 4 1 1 0 0 0
688 730 802 835 715 649 564 554 484 430 283 227 220 247 286 309 273 200 166 158 148 86 39 12 7 18 8 16 12 12 3 7 9 0 0 0 25 4 0 0 0 0 0
494 660 586 735 708 736 672 574 549 465 472 436 359 424 385 343 291 256 236 260 238 165 142 80 61 8 15 15 16 17 2 0 0 15 1 0 0 0 0 0 0 0 0
232 594 793 827 733 804 746 595 624 556 613 632 611 586 533 526 486 435 412 340 272 238 169 145 136 25 9 9 16 20 23 2 0 0 7 2 0 0 0 0 0 0 0
0 129 717 975 777 933 827 685 603 658 594 570 614 643 292 156 95 42 73 134 197 142 86 36 11 0 1 0 0 0 25 45 21 7 0 0 0 0 0 0 0 0 0
0 0 0 491 889 907 842 822 604 426 516 304 328 352 97 0 0 0 0 0 0 0 0 0 0 0 0 0 0 0 0 0 0 11 1 0 0 0 0 0 0 0 0
0 0 0 0 192 375 470 687 581 421 268 144 93 124 16 0 0 0 0 0 0 0 0 0 0 0 0 0 0 0 0 0 0 1 10 10 0 1 5 0 0 0 0
CIN
-152 -45 -1 -2 -2 -3 -17 -78 -151 -140 -214 0 -144 -171 0 0 0 0 -105 -126 -215 0 -1 0 0 0 0 0 0 0 0 0 0 -5 -4 -54 0 0 0 -1 0 0 0
-184 -37 -16 -4 0 -1 -16 -70 -115 -145 -200 -116 -104 0 0 0 0 0 0 -96 -148 0 -1 0 -1 0 0 0 0 -4 -22 0 0 -1 -6 -16 -1 0 0 0 0 -30 -45
-189 -54 -4 -2 -3 -9 -16 -48 -57 -206 -207 -69 -86 0 0 0 0 0 0 -74 -157 0 -1 0 0 0 0 0 0 -24 -20 -26 0 0 0 0 -1 0 -1 -2 -80 -2 -68
-177 -79 -9 -7 -11 -9 -7 -11 -42 -229 -162 -122 -187 -14 0 0 0 0 -1 -1 -1 -2 0 0 0 0 0 0 0 0 -6 -26 -13 0 0 0 0 0 -1 -2 0 -1 0
-143 -63 -17 -19 -12 -11 -7 -14 -173 0 -21 -38 -89 -12 0 0 0 0 0 -1 -1 0 0 0 0 0 0 0 0 0 0 -9 0 0 0 0 0 0 0 0 0 0 0
-104 -50 -22 -24 -17 -16 -18 -43 -3 0 0 -12 -45 -139 0 0 0 0 0 0 0 0 0 0 0 0 0 0 0 0 0 0 0 0 0 0 0 0 0 0 0 0 0
-51 -41 -18 -19 -17 -23 -27 -88 -54 0 0 -28 -18 -89 0 0 0 0 0 0 0 0 0 0 0 0 0 0 0 0 0 0 0 0 0 0 0 0 0 0 0 0 0
-30 -30 -8 -14 -23 -26 -44 -151 0 0 0 -80 -25 -68 -246 0 0 0 0 0 0 0 0 0 0 0 0 0 0 0 0 0 0 0 0 0 0 0 0 0 0 0 0
-41 -29 -2 -12 -30 -38 -95 -226 0 -98 -97 -161 -53 -70 -254 0 0 0 0 0 0 0 0 0 0 0 0 0 0 0 0 0 0 0 0 0 -146 -153 0 0 0 0 0
-57 -55 -29 -15 -33 -82 -176 0 0 -106 -58 -82 -70 -63 -198 0 0 0 0 0 0 0 0 0 0 0 0 0 0 0 0 0 0 0 0 0 -10 -133 0 0 0 0 0
-51 -47 -42 -37 -40 -112 -231 0 0 -141 -129 -116 -67 -196 -184 0 0 0 0 0 0 0 0 0 0 0 0 0 0 0 0 0 0 0 0 0 0 0 -59 0 0 0 0
-38 -39 -33 -46 -52 -101 -214 0 0 0 -223 -217 -212 -211 -219 -74 0 0 -108 0 0 0 0 0 0 0 0 0 0 0 0 0 0 0 0 0 0 0 0 -4 0 0 0
-55 -29 -29 -42 -59 -87 -188 -268 -100 0 0 0 0 0 0 0 -252 -254 0 0 0 0 0 0 0 0 0 0 0 0 0 0 0 0 0 0 0 0 0 -11 0 0 0
-43 -61 -45 -50 -38 -57 -170 -188 -210 -220 -229 0 0 0 0 0 0 0 0 0 0 0 0 0 0 0 0 0 0 0 0 0 0 0 0 0 0 0 0 -6 -5 0 0
-28 -33 -32 -47 -63 -36 -99 -113 -169 -203 -189 -197 -147 0 0 0 0 0 0 0 0 0 0 0 0 0 0 0 0 0 0 0 0 0 0 0 0 0 0 0 -4 -16 0
-24 -27 -32 -29 -38 -43 -44 -77 -105 -160 -199 -169 -150 -193 -156 0 0 0 0 0 0 0 0 0 0 0 0 0 0 0 0 0 0 0 0 0 0 0 0 0 0 -1 0
-41 -47 -30 -21 -34 -37 -45 -47 -63 -101 -130 -134 -129 -132 -137 -212 -227 -213 0 0 0 0 0 0 0 0 0 0 0 0 0 0 0 0 0 0 0 0 0 0 0 0 -10
-28 -23 -28 -26 -23 -46 -46 -56 -59 -46 -68 -80 -110 -112 -110 -124 -175 -207 0 0 0 0 0 0 0 0 0 0 0 0 -3 -10 -12 -20 -3 0 0 0 0 0 0 0 0
-17 -21 -22 -23 -55 -46 -40 -44 -48 -39 -82 -93 -93 -95 -97 -105 -121 -157 -172 0 0 -72 0 0 0 0 0 -4 -4 -11 -11 -13 -18 -20 -18 -16 -10 -28 -36 -18 -22 0 0
-33 -28 -23 -18 -19 -31 -32 -24 -37 -43 -78 -72 -69 -72 -48 -55 -81 -101 -92 -78 -99 -83 -69 -69 -67 -10 -6 -5 -6 -5 -6 -11 -16 -18 -3 -19 -18 -6 -6 -12 0 0 0
-42 -33 -25 -18 -24 -18 -36 -32 -37 -34 -46 -36 -38 -17 -18 -24 -27 -61 -64 -48 -31 -45 -54 -67 -58 -43 -9 -13 -9 -13 -16 -20 -17 0 -1 0 -20 -61 0 0 0 0 0
-53 -47 -29 -34 -35 -26 -22 -29 -28 -26 -25 -21 -17 -10 -18 -21 -28 -41 -42 -14 -9 -14 -19 -18 -10 -3 -8 -7 -5 -7 -2 0 0 -39 -24 0 0 0 0 0 0 0 0
-75 -53 -48 -52 -40 -48 -48 -35 -25 -40 -34 -18 -15 -10 -18 -16 -20 -19 -13 -13 -16 -14 -14 -14 -11 -16 -7 -11 -13 -4 -1 -2 -7 -6 -26 -26 -2 0 0 0 0 0 0
0 -87 -60 -49 -48 -44 -49 -37 -36 -38 -43 -50 -34 -30 -75 -92 -88 -129 -107 -66 -38 -33 -31 -88 -107 -3 -8 0 0 0 -9 -3 -1 -3 0 0 -1 0 0 0 0 0 0
0 0 0 -93 -58 -66 -65 -42 -38 -41 -54 -68 -73 -65 -153 0 0 0 0 0 0 0 0 0 0 0 0 0 0 0 0 0 0 -1 -1 0 0 -1 0 0 0 0 0
0 0 0 0 -134 -113 -73 -66 -59 -41 -54 -122 -154 -145 -221 0 0 0 0 0 0 0 0 0 0 0 0 0 0 0 0 0 0 -2 -4 -6 -2 -4 -35 0 0 0 0
Wind_Speed
7 12 13 14 14 15 15 15 15 15 16 18 19 19 18 17 16 16 17 21 21 21 21 21 21 22 23 24 24 25 26 27 28 29 29 28 28 29 28 29 28 29 28
11 12 14 14 14 13 14 14 15 16 16 19 19 19 18 17 16 16 17 19 21 21 20 21 21 22 23 24 24 25 26 26 27 28 27 28 29 28 29 29 29 29 30
11 11 13 14 13 13 14 14 15 15 15 19 19 18 18 18 18 18 17 18 20 20 20 21 22 22 23 22 23 23 24 24 25 25 27 27 29 29 29 30 29 29 31
12 11 11 12 13 13 14 14 14 15 15 17 17 17 17 18 19 19 19 18 18 19 20 21 21 22 22 21 22 22 19 22 26 26 26 26 28 28 28 28 28 28 28
11 10 11 12 12 14 14 14 14 14 14 16 16 17 17 18 19 20 20 20 20 21 21 21 21 22 22 21 21 21 21 24 25 25 26 27 27 27 27 28 28 27 27
8 9 12 12 13 12 13 13 14 14 13 13 15 16 17 18 19 20 21 21 21 21 21 21 21 21 21 21 20 20 22 24 25 25 26 26 27 27 28 28 28 28 27
8 9 8 11 12 11 12 12 12 14 14 13 14 15 16 17 18 19 20 20 20 20 20 20 20 21 21 21 20 21 21 22 24 24 25 25 26 26 27 27 28 28 27
8 7 7 9 10 10 11 11 11 12 13 12 12 14 15 16 17 18 18 19 19 19 18 19 19 20 20 20 21 21 22 22 23 23 23 23 23 24 25 26 26 26 26
7 5 4 5 8 10 10 10 10 10 10 10 12 14 15 16 16 16 17 17 17 17 17 18 18 19 19 19 20 20 21 22 21 20 21 21 20 21 22 24 25 25 25
8 6 5 3 5 8 8 9 10 9 7 8 8 11 13 14 14 15 14 15 16 16 16 17 17 17 18 18 18 18 19 20 19 18 19 19 19 18 19 20 22 23 24
8 7 7 5 3 6 7 8 8 8 7 7 7 8 9 10 12 13 14 14 14 14 14 15 15 16 16 16 16 15 16 17 17 16 16 17 17 17 16 17 19 21 21
11 8 7 6 4 4 3 5 6 6 5 5 5 6 7 9 10 11 12 12 13 13 13 13 14 14 13 13 13 13 14 15 16 15 15 15 17 16 16 15 16 18 19
14 12 8 8 4 3 1 1 3 4 4 4 5 5 8 9 8 9 11 11 11 11 11 11 11 11 12 12 11 12 12 13 15 15 13 14 15 16 15 14 14 16 17
19 12 10 9 6 4 2 1 2 3 4 4 5 5 8 7 8 8 9 10 10 10 10 10 10 10 10 10 11 11 12 12 13 15 13 12 14 15 15 13 13 14 15
15 18 13 9 7 6 3 2 1 4 6 3 2 6 5 10 11 10 9 8 9 10 10 9 9 9 8 9 10 10 11 12 13 13 13 10 12 14 14 12 11 12 13
11 11 9 9 9 6 5 3 3 6 7 9 8 5 8 8 10 10 11 9 10 9 10 11 11 12 13 14 13 12 12 11 11 12 13 13 11 12 13 13 12 11 11
13 12 10 10 8 8 8 5 6 5 10 13 9 8 9 8 8 9 10 10 11 11 12 14 15 15 16 16 17 17 16 14 13 13 12 12 13 12 12 13 13 13 13
16 13 9 10 10 11 11 10 9 11 14 15 10 7 8 10 10 10 11 12 11 11 12 14 15 16 17 17 17 17 17 18 18 16 15 14 14 13 11 11 12 14 13
17 16 15 14 12 12 11 10 12 15 15 12 11 9 8 9 9 10 11 11 12 13 13 14 15 16 17 17 18 19 21 22 23 22 19 19 18 16 14 11 11 14 15
17 17 18 18 16 15 15 14 14 16 16 16 15 14 8 8 8 9 12 14 13 13 15 16 17 18 18 20 21 22 24 25 25 24 23 20 19 18 18 14 14 18 16
17 17 16 16 15 14 15 15 15 16 15 16 14 12 10 8 10 10 11 14 15 17 19 19 20 22 23 22 24 25 25 23 21 21 21 20 19 18 18 16 17 19 19
15 16 17 17 16 16 15 14 14 13 13 13 12 13 11 8 11 13 15 16 19 20 20 21 22 24 24 23 26 28 32 28 24 23 23 19 16 18 17 18 20 20 20
20 16 16 19 17 17 17 17 17 15 16 15 16 15 13 12 15 16 16 17 23 24 24 24 24 25 29 25 25 28 31 30 26 23 22 21 18 18 17 18 19 19 18
24 22 19 16 20 19 17 18 18 18 19 19 17 15 14 15 15 18 19 20 21 23 27 28 27 27 28 31 29 26 25 26 30 30 24 22 22 20 18 18 17 18 17
22 23 24 24 21 17 15 18 22 22 18 17 16 15 16 17 17 18 20 22 23 25 26 27 27 27 27 28 28 28 28 28 27 28 31 26 24 23 20 17 16 15 16
23 25 25 23 23 22 18 18 18 18 19 18 17 18 17 18 18 19 19 20 22 24 25 26 26 26 26 27 27 28 28 28 27 26 26 26 24 23 21 18 15 14 17
Wind_Direction
114 107 98 90 83 76 68 63 55 47 45 58 62 55 46 44 47 49 51 59 58 56 52 47 42 42 45 49 49 50 51 52 53 47 39 37 46 46 50 45 50 47 46
116 110 102 94 86 75 70 63 56 52 52 65 62 52 46 46 50 53 56 56 56 55 50 44 45 47 49 49 50 51 53 55 57 48 38 34 44 47 45 45 47 45 32
117 110 102 96 86 76 72 66 59 56 53 69 62 53 48 50 52 58 57 56 57 53 48 48 49 51 49 47 45 42 41 43 66 71 47 38 40 47 41 37 43 34 31
117 109 99 93 86 80 74 67 60 60 64 66 60 53 50 52 56 58 60 59 53 52 53 52 51 51 49 47 43 31 13 27 49 53 47 39 43 43 37 37 38 38 36
118 109 100 93 86 82 73 65 63 62 66 66 63 56 53 54 56 59 61 62 58 60 59 56 53 54 51 46 38 27 20 41 47 45 40 39 44 46 43 41 39 40 41
130 115 102 94 88 79 71 64 63 66 68 62 65 58 54 55 56 60 64 66 65 64 61 56 52 53 50 43 31 23 25 35 48 44 41 43 48 47 44 42 41 42 43
140 121 106 96 87 78 71 63 58 68 70 65 69 60 56 55 57 59 62 64 63 61 57 53 49 50 52 45 36 28 20 23 51 45 45 49 49 47 44 42 39 41 42
156 138 116 99 87 78 69 60 55 63 70 67 63 64 58 56 58 58 58 60 60 57 53 50 47 44 47 47 41 34 29 28 41 46 47 50 50 47 42 40 38 37 37
175 169 154 108 91 81 67 59 58 59 59 66 67 69 64 60 57 56 56 56 55 52 50 48 46 45 44 47 48 41 36 32 38 53 48 50 53 47 40 36 34 32 32
193 195 193 167 99 85 69 60 65 57 38 54 54 69 61 56 53 52 48 49 49 49 47 47 46 45 48 50 49 48 44 37 39 54 48 48 46 46 41 37 33 30 29
213 209 199 198 137 95 79 61 62 59 47 43 55 54 46 33 40 50 50 48 43 39 39 41 42 48 54 56 61 61 55 47 44 47 46 44 43 41 42 40 33 30 28
223 214 211 202 175 125 83 69 54 53 43 32 18 13 5 14 27 39 49 46 47 47 44 40 45 56 60 57 60 59 46 43 40 39 43 41 38 37 35 38 34 30 27
224 229 217 220 189 168 180 72 22 23 33 16 354 354 343 347 34 30 28 34 39 48 48 52 56 59 55 46 51 48 44 41 32 30 41 38 35 33 32 32 35 29 25
230 227 220 216 219 195 223 253 342 338 347 341 346 349 335 358 6 7 14 27 36 41 39 41 48 43 53 51 41 41 31 30 28 23 29 31 26 27 27 30 29 25 20
243 235 224 207 224 216 210 257 312 321 312 329 340 330 346 328 327 338 358 14 22 26 27 34 41 33 45 37 32 28 25 23 21 18 17 25 20 17 17 18 18 17 14
242 231 220 213 233 221 224 232 282 302 299 295 303 319 322 328 327 328 335 2 5 13 14 10 11 7 7 5 9 10 10 11 12 9 8 9 10 8 7 6 5 2 1
252 239 223 228 217 232 243 243 275 291 291 291 294 299 308 317 324 330 332 342 351 353 352 348 349 351 351 350 348 349 353 356 356 356 358 357 356 355 357 358 359 357 351
250 245 229 241 241 256 255 260 271 279 290 288 289 291 298 304 309 316 322 330 342 349 349 347 345 343 345 345 346 347 346 346 345 345 345 348 346 346 345 347 350 351 351
252 250 250 250 250 260 260 261 271 279 290 290 293 291 293 301 307 309 316 326 333 338 339 342 342 342 342 342 342 341 338 335 334 336 336 338 340 340 341 343 348 349 351
255 256 256 257 258 263 264 271 275 278 284 286 285 290 288 296 305 308 313 318 326 329 329 331 333 335 336 334 333 332 330 329 329 328 329 332 336 339 342 346 350 348 350
256 255 253 256 257 259 265 269 270 273 276 281 285 288 285 290 300 305 310 314 318 318 320 324 325 325 326 330 329 328 328 329 329 330 330 330 332 337 346 352 350 348 350
255 258 258 256 256 260 264 269 274 273 278 281 280 286 289 295 301 301 304 309 311 314 317 319 320 320 322 326 323 323 322 327 330 331 333 336 339 341 344 347 347 350 352
260 259 254 259 259 261 263 266 273 276 280 277 279 281 286 291 298 303 308 311 304 306 310 315 318 318 314 321 320 319 320 321 329 332 334 338 337 337 340 342 344 347 350
261 266 265 259 259 260 262 266 268 267 270 274 276 281 286 292 300 304 306 309 312 310 308 311 314 315 315 312 317 316 313 316 319 320 327 331 332 332 333 335 341 346 350
263 267 267 267 265 260 254 263 268 271 274 283 281 278 284 292 298 303 306 309 310 312 313 315 315 315 315 314 315 316 315 314 314 313 315 319 323 327 329 335 339 347 350
267 268 271 273 272 271 265 264 267 270 274 274 276 278 284 292 297 304 310 312 315 316 317 317 318 317 316 315 315 314 313 313 315 315 314 316 319 323 327 334 340 347 348